Regional Weather Roundup
Issued by NWS

Home | Current Version | Previous Version | Graphics & Text | Print | Product List | Glossary On
Versions: 1 2 3 4 5 6 7 8 9 10 11 12 13 14 15 16 17 18 19 20 21 22 23 24 25 26 27 28 29 30 31 32 33 34 35 36 37 38 39 40 41 42 43 44 45 46 47 48 49 50
331
ASUS44 KJAN 011303
RWRMS

MISSISSIPPI HOURLY WEATHER ROUNDUP
NATIONAL WEATHER SERVICE JACKSON MS
800 AM CDT WED APR 01 2015

NOTE: "FAIR: INDICATES FEW OR NO CLOUDS BELOW 12,000 FEET WITH NO
SIGNIFICANT WEATHER AND/OR OBSTRUCTIONS TO VISIBILITY.

MSZ001>002-007>008-010>013-018>021-025>028-034>036-011400-
NORTHWEST MISSISSIPPI

CITY           SKY/WX    TMP DP  RH WIND       PRES   REMARKS
CLARKSDALE       N/A     61  61 100 S5        30.01R
CLEVELAND      FAIR      62  62  98 S7        30.02R
GREENWOOD      SUNNY     61  57  87 S8        30.03R
GREENVILLE     CLOUDY    63  60  90 S5        30.02R
OLIVE BRANCH   PTSUNNY   57  57 100 E6        30.03R
OXFORD         CLOUDY    57  54  88 S5        30.05R
TUNICA         PTSUNNY   61  59  94 SE3       30.02R
$$

MSZ003>006-009-014>017-022>024-029>033-037>039-011400-
NORTHEAST MISSISSIPPI

CITY           SKY/WX    TMP DP  RH WIND       PRES   REMARKS
COLUMBUS AFB   PTSUNNY   60  60  99 S3        30.04R
CORINTH          N/A    N/A N/A N/A MISG        N/A
GOLDN TRIANGLE MOSUNNY   61  55  82 S9        30.04S
STARKVILLE     FAIR      59  55  88 S5        30.05S
TUPELO         PTSUNNY   58  57  97 SE3       30.05R FOG
$$

MSZ040-058-011400-
CENTRAL MISSISSIPPI

CITY           SKY/WX    TMP DP  RH WIND       PRES   REMARKS
JACKSON INTL   CLOUDY    65  62  90 SW3       30.06R
JACKSON HAWKNS CLOUDY    65  62  90 SW5       30.06R
MERIDIAN KEY   CLOUDY    60  58  92 S6        30.08R
MERIDIAN NAS   NOT AVBL
RAYMOND        CLOUDY    66  61  82 W5        30.05R
VICKSBURG      CLOUDY    67  63  87 VRB3      30.05R
$$

MSZ059>079-011400-
SOUTH MISSISSIPPI

CITY           SKY/WX    TMP DP  RH WIND       PRES   REMARKS
BROOKHAVEN     CLOUDY    63  63 100 SW5       30.08R
HATTIESBURG    CLOUDY    64  62  93 CALM      30.09R
MCCOMB         CLOUDY    64  63  96 CALM      30.07R FOG
NATCHEZ        CLOUDY    64  63  94 CALM      30.06R
PINE BELT      CLOUDY    61  59  94 S3        30.09S VSB 1/2
$$

MSZ080>082-011400-
COASTAL MISSISSIPPI

CITY           SKY/WX    TMP DP  RH WIND       PRES   REMARKS
BILOXI         MOSUNNY   66  66 100 NE5       30.09R
PASCAGOULA     MOSUNNY   64  63  96 NE3       30.11R
GULFPORT       MOSUNNY   66  63  90 CALM      30.08R FOG
$$



USA.gov is the U.S. government's official web portal to all federal, state and local government web resources and services.